Location: Ab? ar R?sh Ba?r?
(24.1861°N, 32.8847°E)
Time: 23:51:12
(UTC+00:00)

FENGYUN 1C DEB - Visible Passes

Search period start: 10 August 2022 00:00
Search period end: 20 August 2022 00:00
Orbit: 833 x 871 km, 98.8° (Epoch: 10 August)

Date Brightness Start Highest point End Pass type
(mag) Time Alt. Az. Time Alt. Az. Time Alt. Az.
10 Aug ? 17:06:37 10° SSE 17:12:00 76° ENE 17:17:25 10° N visible
11 Aug ? 16:55:28 10° SSE 17:00:45 57° ENE 17:06:03 10° N visible
11 Aug ? 18:40:06 10° WSW 18:41:38 11° W 18:43:10 10° WNW visible
12 Aug ? 16:44:25 10° SE 16:49:30 43° ENE 16:54:36 10° N visible
12 Aug ? 18:27:10 10° SW 18:30:16 15° W 18:33:22 10° WNW visible
13 Aug ? 18:14:58 10° SW 18:18:55 21° W 18:22:53 10° NW visible
14 Aug ? 18:03:04 10° SSW 18:07:34 27° W 18:12:07 10° NW visible
15 Aug ? 17:51:19 10° SSW 17:56:14 36° W 18:01:12 10° NNW visible
16 Aug ? 17:39:45 10° S 17:44:56 48° W 17:50:09 10° NNW visible
17 Aug ? 17:28:18 10° S 17:33:38 64° WSW 17:39:00 10° NNW visible
18 Aug ? 17:16:56 10° SSE 17:22:20 84° WSW 17:27:47 10° NNW visible
19 Aug ? 17:05:41 10° SSE 17:11:03 75° ENE 17:16:29 10° N visible
